Regional Weather Roundup
Issued by NWS

Home | Current Version | Previous Version | Graphics & Text | Print | Product List | Glossary On
Versions: 1 2 3 4 5 6 7 8 9 10 11 12 13 14 15 16 17 18 19 20 21 22 23 24 25 26 27 28 29 30 31 32 33 34 35 36 37 38 39 40 41 42 43 44 45 46 47 48 49 50
000
ASUS43 KLOT 022308
RWRIL

ILLINOIS REGIONAL WEATHER ROUNDUP
NATIONAL WEATHER SERVICE CHICAGO/ROMEOVILLE IL
500 PM CST FRI DEC 02 2016

NOTE: "FAIR" INDICATES FEW OR NO CLOUDS BELOW 12,000 FEET WITH NO
SIGNIFICANT WEATHER AND/OR OBSTRUCTIONS TO VISIBILITY.

* THESE STATIONS ARE NOT UNDER NWS QUALITY CONTROL. THEY ALSO MAY NOT
  REPORT WEATHER SUCH AS PRECIPITATION OR FOG.

ILZ001-002-007-009-015-016-024-030000-
NORTHWEST ILLINOIS

CITY           SKY/WX    TMP DP  RH WIND       PRES   REMARKS
MOLINE         CLOUDY    38  26  62 NW8       30.29R WCI  32
STERLING*      CLOUDY    37  27  67 W8        30.27S WCI  31
SAVANNA*       CLOUDY    35  25  65 W9        30.27F WCI  28
$$

ILZ003-004-008-010-011-017-018-030000-
NORTH CENTRAL ILLINOIS

CITY           SKY/WX    TMP DP  RH WIND       PRES   REMARKS
ROCKFORD       CLOUDY    35  24  64 NW9       30.28S WCI  28
FREEPORT*      CLOUDY    33  24  71 NW9       30.28S WCI  25
ROCHELLE*      CLOUDY    35  27  73 NW9       30.26S WCI  28
DE KALB*       CLOUDY    34  27  75 NW8       30.26R WCI  27
$$

ILZ005-006-012>014-019>023-030000-
NORTHEAST ILLINOIS

CITY           SKY/WX    TMP DP  RH WIND       PRES   REMARKS
CHICAGO-OHARE  CLOUDY    37  25  61 NW8       30.24R WCI  31
CHICAGO-MIDWAY CLOUDY    39  24  55 NW7       30.25R WCI  34
AURORA         CLOUDY    37  29  72 NW12      30.26R WCI  29
LANSING*       CLOUDY    38  32  79 NW7       30.25R WCI  33
JOLIET*        CLOUDY    39  31  73 NW6       30.26R WCI  35
WAUKEGAN       CLOUDY    34  24  67 NW6       30.24R WCI  29
DUPAGE AIRPORT CLOUDY    36  27  69 NW8       30.24R WCI  30
KANKAKEE*      CLOUDY    37  32  80 W5        30.27R WCI  34
WHEELING       CLOUDY    36  26  67 NW6       30.26R WCI  31
MORRIS*        CLOUDY    37  32  82 NW5       30.25S WCI  34
ROMEOVILLE*    CLOUDY    37  34  90 NW7       30.25S WCI  31
NORTHERLY ISL    N/A     38  26  62 NW9         N/A  WCI  31
$$

LMZ740>746-030000-
SOUTHERN LAKE MICHIGAN

STATION/POSITION SKY/WX   TEMP    WIND        PRES    VSBY  WAVE
                          AIR SEA DIR/SP/G                  HT/PER
                          (F)     (DEG/KT/KT) (MB)    (MI)  (FT/S)
SOUTHERN BUOY              38 49  300/ 10/ 14 1023.6R         3/ 5
BURNS HARBOR               40     300/ 11/ 14 1024.0R
$$

ILZ025>027-034>036-040-047-049-050-058-095>099-030000-
WEST-CENTRAL ILLINOIS

CITY           SKY/WX    TMP DP  RH WIND       PRES   REMARKS
QUINCY         MOCLDY    42  31  64 CALM      30.29R
GALESBURG*     CLOUDY    38  30  73 NW5       30.29R WCI  34
MACOMB*        CLOUDY    40  33  77 NW7       30.32R
JACKSONVILLE*  CLOUDY    41  32  69 CALM      30.30R
PITTSFIELD*    CLOUDY    43  32  64 CALM      30.31R
$$

ILZ028>032-037-038-041>044-048-051>054-059>061-030000-
CENTRAL ILLINOIS

CITY           SKY/WX    TMP DP  RH WIND       PRES   REMARKS
PONTIAC        CLOUDY    40  36  86 NW6       30.27R
BLOOMINGTON    CLOUDY    39  31  72 NW7       30.27R WCI  34
DECATUR        CLOUDY    41  32  70 W6        30.29R
PEORIA         CLOUDY    41  30  65 NW7       30.29R
LACON*         CLOUDY    39  30  71 NW9       30.28R WCI  32
LINCOLN*       CLOUDY    42  34  72 CALM      30.29R
SPRINGFIELD    CLOUDY    42  35  76 W5        30.30R
TAYLORVILLE    CLOUDY    39  32  77 W5        30.30R
$$

ILZ033-039-045-046-055>057-062-063-030000-
EAST-CENTRAL ILLINOIS

CITY           SKY/WX    TMP DP  RH WIND       PRES   REMARKS
CHAMPAIGN      CLOUDY    39  34  82 W6        30.27S WCI  35
RANTOUL*       CLOUDY    41  36  82 W6        30.27R
MATTOON        CLOUDY    39  30  70 W3        30.28S
PARIS*         CLOUDY    38  35  88 W7        30.29R WCI  33
$$

ILZ079-100>102-030000-
SOUTHWEST ILLINOIS

CITY           SKY/WX    TMP DP  RH WIND       PRES   REMARKS
ALTON          PTCLDY    41  30  65 CALM      30.31R
BELLEVILLE     CLEAR     42  30  62 N3        30.29S
CAHOKIA*       CLEAR     41  29  62 N7        30.30S
SPARTA*        CLEAR     42  30  63 CALM      30.31R
$$

ILZ064>066-069>071-074>076-080>082-084>086-088>090-092>094-030000-
SOUTH-CENTRAL ILLINOIS

CITY           SKY/WX    TMP DP  RH WIND       PRES   REMARKS
CARBONDALE     CLEAR     43  31  62 N3        30.31R
CAIRO*         CLEAR     46  30  54 CALM      30.29S
EFFINGHAM*     CLOUDY    40  33  75 W5        30.33R
MARION         PTCLDY    45  32  61 CALM      30.31R
CENTRALIA*     CLEAR     40  33  76 N3        30.30S
SALEM*         CLOUDY    43  33  68 N5        30.31R
METROPOLIS*    CLEAR     44  31  58 CALM      30.31R
$$

ILZ067-068-072-073-078-083-087-091-030000-
SOUTHEAST ILLINOIS

CITY           SKY/WX    TMP DP  RH WIND       PRES   REMARKS
LAWRENCEVILLE  CLOUDY    41  32  70 NW5       30.31R
FLORA*         CLOUDY    44  33  65 NW5       30.32R
FAIRFIELD*     CLEAR     42  31  64 CALM      30.30R
HARRISBURG*    CLEAR     43  32  66 CALM      30.32R
ROBINSON*      CLOUDY    39  32  75 NW5       30.32R
CARMI*         PTCLDY    41  32  69 CALM      30.30R
$$

ABBREVIATIONS USED IN REMARKS
   TC - TEMPERATURE IN CELSIUS
  WCI - WIND CHILL INDEX
   HX - HEAT INDEX
  VSB - VISIBILITY
$$





USA.gov is the U.S. government's official web portal to all federal, state and local government web resources and services.